| time (UTC) | temp C | wind direction | speed KPH | gust KPH | rain 1hr cm | rain 24hr cm | rain mn cm | humidity % | barometer mb |
| 20260504033417 | 13 | 309 | 0.0 | 3.2 | 0.00 | 0.00 | 0.00 | 64 | 1003.6 |
| 20260504032513 | 14 | 309 | 0.0 | 1.6 | 0.00 | 0.00 | 0.00 | 64 | 1003.6 |
| 20260504032045 | 14 | 309 | 0.0 | 1.6 | 0.00 | 0.00 | 0.00 | 64 | 1003.5 |
| 20260504030731 | 14 | 309 | 0.0 | 1.6 | 0.00 | 0.00 | 0.00 | 63 | 1003.5 |
| 20260504030517 | 14 | 309 | 0.0 | 3.2 | 0.00 | 0.00 | 0.00 | 63 | 1003.5 |
| 20260504030038 | 14 | 309 | 0.0 | 3.2 | 0.00 | 0.00 | 0.00 | 62 | 1003.6 |
| 20260504023113 | 15 | 309 | 0.0 | 1.6 | 0.00 | 0.00 | 0.00 | 62 | 1003.6 |
| 20260504022739 | 1 | 92 | 0.0 | 0.0 | 0.00 | 0.08 | 0.00 | 79 | 1017.4 |
| 20260504022345 | 15 | 309 | 0.0 | 3.2 | 0.00 | 0.00 | 0.00 | 60 | 1003.6 |
| 20260504022118 | 15 | 309 | 0.0 | 1.6 | 0.00 | 0.00 | 0.00 | 59 | 1003.5 |
| 20260504021858 | 15 | 309 | 0.0 | 1.6 | 0.00 | 0.00 | 0.00 | 58 | 1003.4 |
| 20260504021636 | 15 | 309 | 0.0 | 0.0 | 0.00 | 0.00 | 0.00 | 57 | 1003.4 |
| 20260504020950 | 15 | 309 | 0.0 | 0.0 | 0.00 | 0.00 | 0.00 | 57 | 1003.3 |
| 20260504020048 | 16 | 309 | 0.0 | 0.0 | 0.00 | 0.00 | 0.00 | 57 | 1003.3 |
| 20260504015350 | 16 | 309 | 0.0 | 1.6 | 0.00 | 0.00 | 0.00 | 55 | 1003.3 |
| 20260504015121 | 16 | 309 | 0.0 | 1.6 | 0.00 | 0.00 | 0.00 | 55 | 1003.2 |
| 20260504014454 | 16 | 309 | 0.0 | 0.0 | 0.00 | 0.00 | 0.00 | 54 | 1003.2 |
| 20260504014031 | 16 | 309 | 0.0 | 0.0 | 0.00 | 0.00 | 0.00 | 54 | 1003.1 |
| 20260504013605 | 17 | 309 | 0.0 | 0.0 | 0.00 | 0.00 | 0.00 | 53 | 1003.1 |
| 20260504013133 | 17 | 309 | 0.0 | 0.0 | 0.00 | 0.00 | 0.00 | 53 | 1003.2 |
| 20260504010300 | 18 | 309 | 1.6 | 6.4 | 0.00 | 0.00 | 0.00 | 51 | 1003.0 |
| 20260504005605 | 18 | 293 | 3.2 | 9.7 | 0.00 | 0.00 | 0.00 | 51 | 1003.0 |
| 20260504004452 | 19 | 323 | 3.2 | 8.0 | 0.00 | 0.00 | 0.00 | 50 | 1002.9 |
| 20260504003552 | 19 | 323 | 3.2 | 12.9 | 0.00 | 0.00 | 0.00 | 49 | 1002.9 |
| 20260504002655 | 19 | 317 | 6.4 | 16.1 | 0.00 | 0.00 | 0.00 | 47 | 1002.8 |
| 20260504002429 | 20 | 328 | 6.4 | 16.1 | 0.00 | 0.00 | 0.00 | 49 | 1003.0 |
| 20260504001541 | 20 | 246 | 8.0 | 17.7 | 0.00 | 0.00 | 0.00 | 47 | 1002.9 |
| 20260504000418 | 20 | 313 | 8.0 | 17.7 | 0.00 | 0.00 | 0.00 | 47 | 1003.0 |
| 20260503235956 | 20 | 325 | 8.0 | 17.7 | 0.00 | 0.00 | 0.00 | 47 | 1003.1 |
| 20260503235315 | 20 | 313 | 6.4 | 17.7 | 0.00 | 0.00 | 0.00 | 47 | 1003.1 |
| 20260503234841 | 20 | 277 | 6.4 | 19.3 | 0.00 | 0.00 | 0.00 | 49 | 1003.1 |
| 20260503234207 | 20 | 296 | 6.4 | 19.3 | 0.00 | 0.00 | 0.00 | 47 | 1003.1 |
| 20260503233738 | 20 | 318 | 4.8 | 14.5 | 0.00 | 0.00 | 0.00 | 46 | 1003.1 |
| 20260503231945 | 20 | 218 | 6.4 | 16.1 | 0.00 | 0.00 | 0.00 | 46 | 1003.2 |
| 20260503231303 | 20 | 313 | 6.4 | 16.1 | 0.00 | 0.00 | 0.00 | 46 | 1003.2 |
| 20260503230406 | 20 | 290 | 6.4 | 14.5 | 0.00 | 0.00 | 0.00 | 47 | 1003.4 |
| 20260503225458 | 6 | 83 | 3.2 | 6.4 | 0.03 | 0.15 | 0.00 | 80 | 1016.1 |
| 20260503225454 | 6 | 80 | 1.6 | 6.4 | 0.03 | 0.15 | 0.00 | 79 | 1016.1 |
| 20260503225434 | 20 | 264 | 4.8 | 14.5 | 0.00 | 0.00 | 0.00 | 46 | 1003.4 |
| 20260503225355 | 5 | 44 | 1.6 | 4.8 | 0.00 | 0.13 | 0.00 | 77 | 1016.3 |
| 20260503224656 | 20 | 247 | 8.0 | 25.7 | 0.00 | 0.00 | 0.00 | 46 | 1003.4 |
| 20260503224429 | 20 | 323 | 8.0 | 19.3 | 0.00 | 0.00 | 0.00 | 46 | 1003.6 |
| 20260503223938 | 20 | 306 | 6.4 | 16.1 | 0.00 | 0.00 | 0.00 | 46 | 1003.6 |
| 20260503223248 | 20 | 303 | 6.4 | 19.3 | 0.00 | 0.00 | 0.00 | 46 | 1003.7 |
| 20260503222549 | 20 | 294 | 8.0 | 19.3 | 0.00 | 0.00 | 0.00 | 46 | 1003.8 |
| 20260503222101 | 20 | 321 | 9.7 | 29.0 | 0.00 | 0.00 | 0.00 | 45 | 1003.6 |
| 20260503221622 | 20 | 290 | 11.3 | 37.0 | 0.00 | 0.00 | 0.00 | 45 | 1003.6 |
| 20260503221101 | 20 | 326 | 11.3 | 37.0 | 0.00 | 0.00 | 0.00 | 45 | 1003.6 |
| 20260503220559 | 20 | 313 | 9.7 | 25.7 | 0.00 | 0.00 | 0.00 | 47 | 1003.6 |
| 20260503220100 | 20 | 307 | 9.7 | 22.5 | 0.00 | 0.00 | 0.00 | 46 | 1003.5 |
| 20260503215835 | 20 | 306 | 9.7 | 22.5 | 0.00 | 0.00 | 0.00 | 45 | 1003.6 |
| 20260503215355 | 20 | 205 | 8.0 | 17.7 | 0.00 | 0.00 | 0.00 | 46 | 1003.6 |
| 20260503215134 | 20 | 342 | 8.0 | 22.5 | 0.00 | 0.00 | 0.00 | 47 | 1003.6 |
| 20260503214434 | 20 | 267 | 6.4 | 22.5 | 0.00 | 0.00 | 0.00 | 46 | 1003.8 |
| 20260503213959 | 20 | 292 | 8.0 | 17.7 | 0.00 | 0.00 | 0.00 | 47 | 1003.8 |
| 20260503213525 | 20 | 232 | 8.0 | 17.7 | 0.00 | 0.00 | 0.00 | 47 | 1003.8 |
| 20260503213300 | 20 | 321 | 9.7 | 22.5 | 0.00 | 0.00 | 0.00 | 47 | 1003.8 |
| 20260503211928 | 20 | 337 | 9.7 | 24.1 | 0.00 | 0.00 | 0.00 | 47 | 1004.1 |
| 20260503211235 | 20 | 303 | 9.7 | 24.1 | 0.00 | 0.00 | 0.00 | 46 | 1004.0 |
| 20260503210800 | 20 | 311 | 8.0 | 24.1 | 0.00 | 0.00 | 0.00 | 47 | 1004.0 |
| 20260503210116 | 19 | 316 | 8.0 | 22.5 | 0.00 | 0.00 | 0.00 | 46 | 1004.2 |
| 20260503205618 | 19 | 266 | 9.7 | 22.5 | 0.00 | 0.00 | 0.00 | 48 | 1004.2 |
| 20260503205348 | 19 | 309 | 8.0 | 22.5 | 0.00 | 0.00 | 0.00 | 47 | 1004.3 |
| 20260503204913 | 19 | 279 | 8.0 | 17.7 | 0.00 | 0.00 | 0.00 | 47 | 1004.4 |
| 20260503204012 | 19 | 268 | 8.0 | 16.1 | 0.00 | 0.00 | 0.00 | 49 | 1004.5 |
| 20260503203049 | 6 | 115 | 3.2 | 9.7 | 0.00 | 0.13 | 0.00 | 75 | 1015.9 |
| 20260503203034 | 6 | 117 | 3.2 | 9.7 | 0.00 | 0.13 | 0.00 | 74 | 1015.9 |
| 20260503203027 | 6 | 98 | 3.2 | 6.4 | 0.00 | 0.13 | 0.00 | 75 | 1015.7 |
| 20260503202939 | 19 | 271 | 8.0 | 17.7 | 0.00 | 0.00 | 0.00 | 46 | 1004.5 |
| 20260503202420 | 19 | 326 | 8.0 | 20.9 | 0.00 | 0.00 | 0.00 | 48 | 1004.7 |
| 20260503202335 | 7 | 95 | 3.2 | 12.9 | 0.00 | 0.13 | 0.00 | 73 | 1015.5 |
| 20260503202115 | 18 | 329 | 6.4 | 20.9 | 0.00 | 0.00 | 0.00 | 51 | 1004.9 |
| 20260503201836 | 7 | 97 | 4.8 | 14.5 | 0.00 | 0.13 | 0.00 | 74 | 1015.4 |
| 20260503201602 | 18 | 167 | 6.4 | 17.7 | 0.00 | 0.00 | 0.00 | 53 | 1005.1 |
| 20260503200904 | 18 | 169 | 6.4 | 17.7 | 0.00 | 0.00 | 0.00 | 54 | 1005.2 |
| 20260503200621 | 17 | 30 | 6.4 | 19.3 | 0.00 | 0.00 | 0.00 | 53 | 1005.4 |
| 20260503195647 | 17 | 325 | 8.0 | 25.7 | 0.00 | 0.00 | 0.00 | 53 | 1005.4 |
| 20260503195417 | 17 | 294 | 8.0 | 25.7 | 0.00 | 0.00 | 0.00 | 54 | 1005.4 |
| 20260503194729 | 17 | 194 | 9.7 | 22.5 | 0.00 | 0.00 | 0.00 | 56 | 1005.6 |
| 20260503193950 | 17 | 252 | 9.7 | 29.0 | 0.00 | 0.00 | 0.00 | 55 | 1005.8 |
| 20260503193727 | 17 | 344 | 9.7 | 29.0 | 0.00 | 0.00 | 0.00 | 52 | 1006.0 |
| 20260503193242 | 17 | 355 | 11.3 | 35.4 | 0.00 | 0.00 | 0.00 | 51 | 1005.8 |
| 20260503192808 | 18 | 277 | 8.0 | 35.4 | 0.00 | 0.00 | 0.00 | 49 | 1005.7 |
| 20260503192330 | 18 | 276 | 8.0 | 19.3 | 0.00 | 0.00 | 0.00 | 50 | 1005.9 |
| 20260503190605 | 7 | 130 | 4.8 | 12.9 | 0.00 | 0.13 | 0.00 | 70 | 1015.6 |
| 20260503190440 | 17 | 140 | 9.7 | 24.1 | 0.00 | 0.00 | 0.00 | 50 | 1006.0 |
| 20260503190212 | 17 | 232 | 8.0 | 22.5 | 0.00 | 0.00 | 0.00 | 50 | 1006.0 |
| 20260503185513 | 17 | 164 | 8.0 | 19.3 | 0.00 | 0.00 | 0.00 | 53 | 1005.9 |
| 20260503185247 | 16 | 161 | 8.0 | 19.3 | 0.00 | 0.00 | 0.00 | 50 | 1005.9 |
| 20260503184602 | 17 | 236 | 9.7 | 20.9 | 0.00 | 0.00 | 0.00 | 53 | 1005.8 |
| 20260503184118 | 16 | 226 | 9.7 | 20.9 | 0.00 | 0.00 | 0.00 | 50 | 1006.2 |
| 20260503183426 | 17 | 184 | 8.0 | 20.9 | 0.00 | 0.00 | 0.00 | 50 | 1006.0 |
| 20260503183153 | 17 | 134 | 8.0 | 20.9 | 0.00 | 0.00 | 0.00 | 48 | 1006.3 |
| 20260503182501 | 17 | 5 | 6.4 | 16.1 | 0.00 | 0.00 | 0.00 | 51 | 1006.0 |
| 20260503182003 | 9 | 312 | 4.8 | 11.3 | 0.00 | 0.13 | 0.00 | 60 | 1015.1 |
| 20260503181950 | 9 | 321 | 4.8 | 12.9 | 0.00 | 0.13 | 0.00 | 61 | 1015.0 |
| 20260503181914 | 17 | 171 | 6.4 | 20.9 | 0.00 | 0.00 | 0.00 | 51 | 1006.0 |
| 20260503181848 | 8 | 302 | 4.8 | 12.9 | 0.00 | 0.13 | 0.00 | 61 | 1015.0 |
| 20260503181609 | 17 | 327 | 8.0 | 20.9 | 0.00 | 0.00 | 0.00 | 53 | 1006.0 |
| 20260503181128 | 16 | 153 | 8.0 | 19.3 | 0.00 | 0.00 | 0.00 | 52 | 1006.3 |
| 20260503180649 | 16 | 217 | 11.3 | 24.1 | 0.00 | 0.00 | 0.00 | 52 | 1006.4 |
| 20260503175957 | 16 | 219 | 11.3 | 27.4 | 0.00 | 0.00 | 0.00 | 54 | 1006.4 |
| 20260503175507 | 16 | 233 | 8.0 | 27.4 | 0.00 | 0.00 | 0.00 | 55 | 1006.5 |
| 20260503175018 | 16 | 132 | 8.0 | 25.7 | 0.00 | 0.00 | 0.00 | 60 | 1006.6 |
| 20260503174743 | 16 | 119 | 8.0 | 25.7 | 0.00 | 0.00 | 0.00 | 59 | 1006.9 |
| 20260503174259 | 15 | 296 | 8.0 | 24.1 | 0.00 | 0.00 | 0.00 | 61 | 1006.9 |
| 20260503173609 | 15 | 183 | 9.7 | 29.0 | 0.00 | 0.00 | 0.00 | 61 | 1007.2 |
| 20260503173125 | 15 | 275 | 9.7 | 29.0 | 0.00 | 0.00 | 0.00 | 62 | 1007.5 |
| 20260503172637 | 14 | 160 | 8.0 | 20.9 | 0.00 | 0.00 | 0.00 | 63 | 1007.4 |
| 20260503172156 | 14 | 300 | 9.7 | 29.0 | 0.00 | 0.00 | 0.00 | 64 | 1007.6 |
| 20260503171159 | 8 | 318 | 6.4 | 16.1 | 0.00 | 0.13 | 0.00 | 63 | 1015.0 |
| 20260503171133 | 8 | 305 | 4.8 | 9.7 | 0.00 | 0.13 | 0.00 | 65 | 1015.0 |
| 20260503170948 | 13 | 159 | 8.0 | 22.5 | 0.00 | 0.00 | 0.00 | 66 | 1007.8 |
| 20260503170714 | 12 | 131 | 9.7 | 29.0 | 0.00 | 0.00 | 0.00 | 65 | 1008.0 |
| 20260503150644 | 12 | 321 | 11.3 | 29.0 | 0.00 | 0.00 | 0.00 | 61 | 1009.5 |
| 20260503131331 | 10 | 316 | 4.8 | 16.1 | 0.00 | 0.00 | 0.00 | 62 | 1010.4 |
| 20260503130901 | 10 | 270 | 4.8 | 16.1 | 0.00 | 0.00 | 0.00 | 62 | 1010.3 |
| 20260503110526 | 8 | 316 | 3.2 | 8.0 | 0.00 | 0.00 | 0.00 | 62 | 1010.1 |
| 20260503100255 | 8 | 298 | 3.2 | 11.3 | 0.00 | 0.00 | 0.00 | 61 | 1010.5 |
| 20260503090358 | 8 | 249 | 3.2 | 8.0 | 0.00 | 0.00 | 0.00 | 60 | 1011.0 |
| 20260503090145 | 8 | 284 | 3.2 | 8.0 | 0.00 | 0.00 | 0.00 | 60 | 1010.9 |
| 20260503081122 | 7 | 219 | 3.2 | 8.0 | 0.00 | 0.00 | 0.00 | 62 | 1011.3 |
| 20260503080639 | 7 | 319 | 3.2 | 8.0 | 0.00 | 0.00 | 0.00 | 62 | 1011.4 |
| 20260503072455 | 7 | 241 | 3.2 | 8.0 | 0.00 | 0.00 | 0.00 | 64 | 1011.4 |
| 20260503072021 | 7 | 297 | 3.2 | 8.0 | 0.00 | 0.00 | 0.00 | 65 | 1011.5 |
| 20260503071328 | 7 | 260 | 1.6 | 4.8 | 0.00 | 0.00 | 0.00 | 65 | 1011.5 |
| 20260503070155 | 6 | 264 | 1.6 | 6.4 | 0.00 | 0.00 | 0.00 | 65 | 1011.6 |
| 20260503055003 | 3 | 131 | 0.0 | 3.2 | 0.00 | 0.15 | 0.00 | 91 | 1014.1 |
| 20260503054828 | 6 | 271 | 1.6 | 4.8 | 0.00 | 0.00 | 0.00 | 66 | 1012.3 |
| 20260503054602 | 6 | 271 | 1.6 | 4.8 | 0.00 | 0.00 | 0.00 | 65 | 1012.3 |
| 20260503053623 | 6 | 286 | 1.6 | 3.2 | 0.00 | 0.00 | 0.00 | 65 | 1012.3 |
| 20260503052907 | 6 | 286 | 1.6 | 3.2 | 0.00 | 0.00 | 0.00 | 66 | 1012.4 |
| 20260503051958 | 6 | 287 | 1.6 | 4.8 | 0.00 | 0.00 | 0.00 | 65 | 1012.5 |
| 20260503051321 | 6 | 287 | 1.6 | 4.8 | 0.00 | 0.00 | 0.00 | 64 | 1012.5 |
| 20260503050146 | 6 | 287 | 1.6 | 3.2 | 0.00 | 0.00 | 0.00 | 64 | 1012.6 |
| 20260503044806 | 7 | 286 | 1.6 | 6.4 | 0.00 | 0.00 | 0.00 | 64 | 1012.7 |
| 20260503044329 | 7 | 286 | 0.0 | 6.4 | 0.00 | 0.00 | 0.00 | 64 | 1012.6 |
| 20260503044011 | 3 | 131 | 1.6 | 3.2 | 0.00 | 0.15 | 0.00 | 91 | 1014.0 |
| 20260503043749 | 7 | 286 | 1.6 | 4.8 | 0.00 | 0.00 | 0.00 | 64 | 1012.6 |
| 20260503043258 | 7 | 286 | 1.6 | 4.8 | 0.00 | 0.00 | 0.00 | 64 | 1012.6 |
| 20260503042341 | 7 | 286 | 0.0 | 4.8 | 0.00 | 0.00 | 0.00 | 63 | 1012.8 |
| 20260503041901 | 7 | 286 | 1.6 | 4.8 | 0.00 | 0.00 | 0.00 | 63 | 1012.8 |
| 20260503035958 | 7 | 286 | 1.6 | 3.2 | 0.00 | 0.00 | 0.00 | 62 | 1013.0 |
| 20260503035529 | 7 | 285 | 1.6 | 3.2 | 0.00 | 0.00 | 0.00 | 63 | 1012.9 |
| 20260503034424 | 3 | 131 | 0.0 | 0.0 | 0.00 | 0.15 | 0.00 | 90 | 1013.7 |
| 20260503034301 | 7 | 285 | 1.6 | 4.8 | 0.00 | 0.00 | 0.00 | 63 | 1013.0 |